TimeEST,TemperatureF,Dew PointF,Humidity,Sea Level PressureIn,VisibilityMPH,Wind Direction,Wind SpeedMPH,Gust SpeedMPH,PrecipitationIn,Events,Conditions,WindDirDegrees,DateUTC
12:15 AM,10.4,-0.4,62,30.09,10.0,NW,5.8,-,N/A,,Overcast,320,2013-01-18 05:15:00
12:35 AM,10.4,-0.4,62,30.10,10.0,North,4.6,-,N/A,,Overcast,350,2013-01-18 05:35:00
12:55 AM,10.4,-0.4,62,30.10,10.0,North,5.8,-,N/A,,Overcast,360,2013-01-18 05:55:00
1:15 AM,10.4,-0.4,62,30.10,10.0,North,6.9,-,N/A,,Overcast,10,2013-01-18 06:15:00
1:55 AM,8.6,-0.4,67,30.10,10.0,NNW,3.5,-,N/A,,Mostly Cloudy,340,2013-01-18 06:55:00
2:15 AM,8.6,-0.4,67,30.13,10.0,Calm,Calm,-,N/A,,Partly Cloudy,0,2013-01-18 07:15:00
2:35 AM,8.6,-0.4,67,30.14,10.0,Calm,Calm,-,N/A,,Clear,0,2013-01-18 07:35:00
2:55 AM,8.6,-2.2,62,30.14,10.0,NNE,4.6,-,N/A,,Clear,20,2013-01-18 07:55:00
3:15 AM,8.6,-2.2,62,30.13,10.0,North,5.8,-,N/A,,Mostly Cloudy,360,2013-01-18 08:15:00
3:35 AM,6.8,-0.4,72,30.14,10.0,North,3.5,-,N/A,,Mostly Cloudy,360,2013-01-18 08:35:00
3:55 AM,6.8,-2.2,67,30.14,10.0,North,5.8,-,N/A,,Mostly Cloudy,360,2013-01-18 08:55:00
4:15 AM,6.8,-2.2,67,30.15,10.0,NNW,5.8,-,N/A,,Scattered Clouds,340,2013-01-18 09:15:00
4:35 AM,6.8,-2.2,67,30.16,10.0,North,4.6,-,N/A,,Clear,360,2013-01-18 09:35:00
4:55 AM,5.0,-2.2,72,30.17,10.0,North,6.9,-,N/A,,Clear,360,2013-01-18 09:55:00
5:15 AM,5.0,-2.2,72,30.18,10.0,North,4.6,-,N/A,,Clear,350,2013-01-18 10:15:00
5:35 AM,3.2,-2.2,78,30.19,10.0,North,4.6,-,N/A,,Clear,10,2013-01-18 10:35:00
5:55 AM,3.2,-4.0,72,30.19,10.0,North,5.8,-,N/A,,Clear,10,2013-01-18 10:55:00
6:35 AM,3.2,-2.2,78,30.22,10.0,North,4.6,-,N/A,,Clear,360,2013-01-18 11:35:00
6:55 AM,3.2,-2.2,78,30.23,10.0,NNE,3.5,-,N/A,,Clear,30,2013-01-18 11:55:00
7:15 AM,1.4,-5.8,72,30.24,10.0,Calm,Calm,-,N/A,,Clear,0,2013-01-18 12:15:00
7:35 AM,1.4,-0.4,92,30.26,10.0,Calm,Calm,-,N/A,,Clear,0,2013-01-18 12:35:00
7:55 AM,3.2,-2.2,78,30.27,10.0,Calm,Calm,-,N/A,,Clear,0,2013-01-18 12:55:00
8:15 AM,3.2,-4.0,72,30.28,10.0,Calm,Calm,-,N/A,,Clear,0,2013-01-18 13:15:00
8:35 AM,3.2,-0.4,85,30.29,10.0,Calm,Calm,-,N/A,,Clear,0,2013-01-18 13:35:00
8:55 AM,3.2,-5.8,66,30.30,10.0,North,3.5,-,N/A,,Clear,10,2013-01-18 13:55:00
9:15 AM,5.0,-2.2,72,30.31,10.0,Calm,Calm,-,N/A,,Clear,0,2013-01-18 14:15:00
9:35 AM,6.8,-5.8,56,30.32,10.0,Calm,Calm,-,N/A,,Clear,0,2013-01-18 14:35:00
9:55 AM,6.8,-7.6,52,30.32,10.0,Calm,Calm,-,N/A,,Clear,0,2013-01-18 14:55:00
10:15 AM,8.6,-2.2,62,30.32,10.0,NNE,5.8,-,N/A,,Clear,30,2013-01-18 15:15:00
10:55 AM,10.4,-5.8,48,30.31,10.0,NW,6.9,-,N/A,,Clear,320,2013-01-18 15:55:00
11:15 AM,10.4,-7.6,44,30.30,10.0,NNW,6.9,-,N/A,,Clear,340,2013-01-18 16:15:00
11:55 AM,12.2,-5.8,45,30.29,10.0,NNW,9.2,-,N/A,,Clear,330,2013-01-18 16:55:00
12:15 PM,12.2,-7.6,41,30.29,10.0,NNW,9.2,-,N/A,,Clear,340,2013-01-18 17:15:00
12:35 PM,15.8,-5.8,38,30.28,10.0,NNW,10.4,-,N/A,,Clear,330,2013-01-18 17:35:00
12:55 PM,15.8,-2.2,45,30.28,10.0,West,6.9,-,N/A,,Partly Cloudy,270,2013-01-18 17:55:00
1:15 PM,17.6,-4.0,38,30.29,10.0,WNW,9.2,17.3,N/A,,Partly Cloudy,290,2013-01-18 18:15:00
1:35 PM,17.6,-7.6,32,30.29,10.0,WNW,9.2,-,N/A,,Clear,300,2013-01-18 18:35:00
1:55 PM,17.6,-2.2,42,30.30,10.0,SW,12.7,19.6,N/A,,Partly Cloudy,230,2013-01-18 18:55:00
2:15 PM,17.6,-4.0,38,30.30,10.0,West,12.7,-,N/A,,Partly Cloudy,260,2013-01-18 19:15:00
2:55 PM,19.4,-2.2,39,30.29,10.0,WSW,10.4,-,N/A,,Clear,250,2013-01-18 19:55:00
3:15 PM,19.4,-5.8,33,30.29,10.0,WSW,8.1,-,N/A,,Clear,240,2013-01-18 20:15:00
3:35 PM,19.4,-4.0,36,30.29,10.0,WSW,5.8,-,N/A,,Clear,250,2013-01-18 20:35:00
3:55 PM,19.4,-5.8,33,30.29,10.0,West,10.4,-,N/A,,Clear,270,2013-01-18 20:55:00
4:15 PM,19.4,-5.8,33,30.30,10.0,West,6.9,-,N/A,,Clear,260,2013-01-18 21:15:00
4:35 PM,17.6,-4.0,38,30.30,9.0,WSW,6.9,-,N/A,,Clear,240,2013-01-18 21:35:00
4:55 PM,17.6,-4.0,38,30.31,10.0,SSW,6.9,-,N/A,,Clear,210,2013-01-18 21:55:00
5:35 PM,17.6,-0.4,45,30.31,10.0,SW,4.6,-,N/A,,Clear,220,2013-01-18 22:35:00
5:55 PM,15.8,1.4,53,30.32,10.0,SSW,3.5,-,N/A,,Clear,210,2013-01-18 22:55:00
6:15 PM,15.8,1.4,53,30.31,10.0,South,3.5,-,N/A,,Clear,190,2013-01-18 23:15:00
6:35 PM,15.8,1.4,53,30.31,10.0,South,4.6,-,N/A,,Clear,170,2013-01-18 23:35:00
6:55 PM,15.8,1.4,53,30.32,10.0,SSE,4.6,-,N/A,,Clear,160,2013-01-18 23:55:00
7:15 PM,15.8,1.4,53,30.32,10.0,SSW,4.6,-,N/A,,Clear,200,2013-01-19 00:15:00
7:55 PM,15.8,1.4,53,30.31,10.0,ESE,3.5,-,N/A,,Clear,120,2013-01-19 00:55:00
8:15 PM,14.0,1.4,57,30.31,10.0,Calm,Calm,-,N/A,,Clear,0,2013-01-19 01:15:00
8:35 PM,12.2,1.4,62,30.30,10.0,Calm,Calm,-,N/A,,Scattered Clouds,0,2013-01-19 01:35:00
8:55 PM,14.0,3.2,62,30.30,10.0,Calm,Calm,-,N/A,,Mostly Cloudy,0,2013-01-19 01:55:00
9:15 PM,14.0,5.0,67,30.30,10.0,South,3.5,-,N/A,,Overcast,170,2013-01-19 02:15:00
9:35 PM,14.0,3.2,62,30.29,10.0,ESE,5.8,-,N/A,,Mostly Cloudy,110,2013-01-19 02:35:00
10:35 PM,15.8,3.2,58,30.26,10.0,ESE,4.6,-,N/A,,Overcast,120,2013-01-19 03:35:00
10:55 PM,15.8,5.0,62,30.24,10.0,ESE,5.8,-,N/A,,Overcast,120,2013-01-19 03:55:00
11:15 PM,15.8,5.0,62,30.23,10.0,East,3.5,-,N/A,,Overcast,100,2013-01-19 04:15:00
11:35 PM,15.8,5.0,62,30.22,10.0,East,4.6,-,N/A,,Overcast,90,2013-01-19 04:35:00
11:55 PM,15.8,6.8,68,30.22,10.0,ESE,8.1,-,N/A,,Overcast,120,2013-01-19 04:55:00